Preview of NWS' New Version of Forecast
This preview is not operational and should not be used for support decisions.

Regional Weather Roundup (RWR)

Issued by National Weather Service (NWS)

                            
000
ASUS45 KCYS 200910
RWRWY 

WYOMING REGIONAL WEATHER ROUNDUP
NATIONAL WEATHER SERVICE CHEYENNE WY
300 AM MDT WED MAR 20 2019

NOTE:  "FAIR" INDICATES FEW OR NO CLOUDS BELOW 12,000 FEET
WITH NO SIGNIFICANT WEATHER AND/OR OBSTRUCTIONS TO VISIBILITY.

WYZ001-201000-
YELLOWSTONE NATIONAL PARK
  
CITY           SKY/WX    TMP DP  RH WIND       PRES   REMARKS
LK YELLOWSTONE   N/A      6   1  80 CALM      30.33F                  
W YELLOWSTONE  NOT AVBL                                               

$$
WYZ002>013-054>058-071-098>099-201000-
NORTHERN WYOMING
  
CITY           SKY/WX    TMP DP  RH WIND       PRES   REMARKS
JACKSON        FAIR       9   3  77 N7        30.32S WCI  -2          
CODY           FAIR      33  14  45 S8        30.29S WCI  26          
GREYBULL       FAIR      26  19  74 E3        30.30R                  
WORLAND        FAIR      24  19  81 S7        30.29S WCI  16          
SHERIDAN       FAIR      27  18  69 S3        30.24S                  
BUFFALO        FAIR      30  11  45 W5        30.21F WCI  25          
GILLETTE       FAIR      32  20  61 W12       30.22F WCI  23          
HULETT         FAIR      30  18  59 MISG      30.22                   
NEWCASTLE      FAIR      27  19  74 NW5       30.23  WCI  21          

$$
WYZ014>020-022>026-101>103-201000-
CENTRAL WYOMING
  
CITY           SKY/WX    TMP DP  RH WIND       PRES   REMARKS
BIG PINEY      FAIR       3   0  87 NE5       30.34S WCI  -6          
PINEDALE       FAIR       1   0  92 NW7       30.35  WCI -11          
DUBOIS         FAIR      19   7  58 W8        30.30  WCI   9          
LANDER         FAIR      27  15  61 CALM      30.28S                  
RIVERTON       FAIR      25  10  53 NW8       30.30R WCI  16          
CASPER         FAIR      24  18  77 SW10      30.28S WCI  14          
DOUGLAS        FAIR      22  19  89 NW7       30.26S WCI  13          

$$
WYZ021-027>030-104>119-201000-
SOUTHERN WYOMING
  
CITY           SKY/WX    TMP DP  RH WIND       PRES   REMARKS
EVANSTON       FAIR      15  10  80 E12       30.29R WCI   2          
KEMMERER       FAIR      16  10  79 N10       30.30  WCI   3          
ROCK SPRINGS   FAIR      22  17  81 SW3       30.32S                  
DIXON          FAIR      16   5  60 E5        30.38S WCI   9          
RAWLINS        FAIR      14  10  84 SE3       30.33R                  
SARATOGA       FAIR      10   1  67 S12       30.34R WCI  -4          
LARAMIE        FAIR      12   7  80 S8        30.28S WCI   0          
CHEYENNE       FAIR      26  13  57 W13       30.24F WCI  15          
TORRINGTON     FAIR      24  22  91 NW7       30.24S WCI  16          
PINE BLUFFS    FAIR      23  18  80 W8        30.25F WCI  14          

$$